Location: Certamussat
(44.4628°N, 6.8285°E)
Time: 10:38:15
(UTC+00:00)

Daily predictions for brighter satellites

Satellite Brightness Start Highest point End
(mag) Time Altitude Azimuth Time Altitude Azimuth Time Altitude Azimuth
USA 267 3.4 16:15:12 10° NE 16:21:47 84° SE 16:28:19 10° SW
H-2A R/B 3.0 16:19:22 10° ESE 16:23:24 24° ENE 16:27:23 10° NNE
SJ 16-02 3.4 16:22:00 10° NW 16:25:55 33° W 16:29:51 10° SSW
Cosmos 1763 Rocket 3.5 16:21:31 10° S 16:26:29 64° ESE 16:31:34 10° NNE
CZ-4B R/B 2.8 16:23:33 10° SSE 16:27:36 71° ENE 16:31:28 10° N
USA 305 4.4 16:25:29 10° WNW 16:28:53 23° N 16:32:18 10° NE
USA 276 2.4 16:26:12 10° WNW 16:29:19 69° SSW 16:32:24 10° SE
Cosmos 1656 3.9 16:26:08 10° NNW 16:31:42 78° WSW 16:37:18 10° SSE
Cosmos 1933 3.8 16:28:52 10° SSE 16:32:39 40° E 16:36:28 10° NNE
Cosmos 841 Rocket 4.2 16:28:29 10° SSE 16:33:02 32° E 16:37:35 10° NE
Cosmos 1464 Rocket 4.4 16:28:14 10° SSW 16:34:35 72° W 16:40:59 10° N
USA 229 DEB 3.9 16:29:12 10° NW 16:36:35 76° NE 16:44:24 10° SE
USA 229 3.9 16:29:18 10° NW 16:36:40 75° NE 16:44:29 10° SE
Cosmos 1937 Rocket 3.8 16:32:53 10° N 16:38:03 48° ENE 16:43:10 10° SE
Cosmos 1500 Rocket 3.5 16:36:27 10° N 16:40:54 79° E 16:45:18 10° SSE
Cosmos 1666 4.2 16:38:45 10° NNE 16:41:04 16° ENE 16:43:22 10° ESE
Nadezhda 4 Rocket 4.2 16:36:27 10° N 16:42:48 84° W 16:49:08 10° S
SL-24 R/B - RUBIN 2 4.2 16:39:07 10° NNW 16:43:18 34° NE 16:47:16 10° ESE
Cosmos 2322 Rocket 4.0 16:42:31 10° NNE 16:44:24 12° NE 16:45:57 10° NE
Cosmos 990 Rocket 4.1 16:39:48 10° NNW 16:45:01 82° WSW 16:50:10 10° SSE
FengYun 1-2 T 4.2 16:39:36 10° SSE 16:45:12 83° ENE 16:50:47 10° NNW
Cosmos 1697 Rocket 2.6 16:41:45 10° NNW 16:47:23 73° ENE 16:52:59 10° SSE
NOAA 6 4.0 16:43:30 10° SSE 16:48:37 72° ENE 16:53:44 10° N
Cosmos 372 Rocket 4.4 16:44:18 10° N 16:49:13 39° ENE 16:54:08 10° SE
Sich 1 3.3 16:46:29 10° N 16:50:37 44° ENE 16:54:45 10° SSE
Cosmos 2221 3.9 16:46:56 10° SSW 16:50:58 40° WNW 16:55:02 10° N
Cosmos 1980 Rocket 2.5 16:46:14 10° NNW 16:51:38 43° ENE 16:56:57 10° SE
Cosmos 1805 Rocket 3.5 16:48:21 10° N 16:52:39 61° E 16:56:56 10° SSE
Cosmos 2369 3.8 16:47:58 10° NNW 16:53:37 55° ENE 16:59:13 10° SE
USA 234 3.2 16:48:19 10° ESE 16:54:50 76° NE 17:01:22 10° NW
CZ-4C R/B 3.3 16:51:09 10° NNW 16:57:56 45° NE 17:05:49 10° ESE
Cosmos 1092 Rocket 4.0 16:52:21 10° N 16:58:44 78° E 17:05:04 10° SSE
Cosmos 2084 4.1 16:55:19 10° NW 16:59:35 60° SW 17:04:00 10° SSE
Cosmos 1812 3.5 16:56:19 10° SSE 16:59:42 30° E 17:02:42 12° NNE
NOSS 3-1 (A) 4.4 16:52:35 10° NW 17:00:12 79° SW 17:09:04 10° SSE
USA 306 4.5 16:58:00 10° NW 17:01:23 22° N 17:03:42 15° NE
Cosmos 1428 Rocket 4.4 16:55:19 10° N 17:01:27 71° E 17:07:36 10° SSE
SL-16 R/B 3.5 16:58:49 10° N 17:02:40 18° NE 17:04:16 16° ENE
ISS -3.2 16:59:48 10° NW 17:03:04 42° NNE 17:04:58 21° E
deb Chang Zheng 4 4.2 17:00:19 10° SE 17:04:09 32° ENE 17:07:59 10° N
Meteor 1-25 Rocket 4.3 16:58:49 10° NNW 17:04:25 83° W 17:10:01 10° S
SMAP 3.2 16:59:59 10° S 17:04:38 80° WSW 17:09:19 10° NNW
Cosmos 2082 Rocket 2.4 16:59:58 10° S 17:05:29 54° ESE 17:10:43 11° NE
NOSS 2-2 (D) 4.4 17:00:30 10° NNW 17:05:39 60° NE 17:12:50 10° SE
MOS 1-B Rocket 4.3 17:00:00 10° NNE 17:05:47 52° E 17:12:23 10° S
Cosmos 1939 Rocket 3.3 17:01:49 10° S 17:05:54 67° W 17:09:59 10° NNW
NOSS 2-2 (E) 4.4 17:00:39 10° NNW 17:06:01 72° NE 17:13:35 10° SE
CORIOLIS 4.2 17:02:09 10° SSE 17:07:33 88° WSW 17:13:01 10° NNW
Cosmos 858 Rocket 4.5 17:05:15 10° NNW 17:10:34 83° ENE 17:15:50 10° SSE
Cosmos 44 Rocket 4.3 17:08:35 10° NNW 17:12:44 26° NE 17:14:23 21° ENE
CZ-4B DEB 4.2 17:08:24 10° SSE 17:13:55 89° ENE 17:19:27 10° NNW
Cosmos 2278 3.9 17:12:08 10° NNW 17:17:41 49° ENE 17:23:10 10° SE
Cosmos 1602 4.1 17:13:59 10° NNW 17:17:49 66° W 17:21:39 10° S
USA 307 4.4 17:16:50 10° NW 17:20:16 23° N 17:21:44 19° NNE
Cosmos 540 Rocket 3.6 17:15:23 10° SSW 17:20:28 74° WNW 17:25:37 10° NNE
ARGOS 3.3 17:18:56 10° SE 17:24:08 49° ENE 17:29:20 10° N
Cosmos 1570 Rocket 4.2 17:20:08 10° S 17:25:09 49° ESE 17:28:35 20° NE
Cosmos 2279 Rocket 4.0 17:19:09 10° S 17:25:14 61° E 17:31:20 10° NNE
COSMOS 2406 3.6 17:20:32 10° SW 17:26:15 66° WNW 17:31:58 10° NNE
COSMO-SKYMED 1 2.7 17:23:24 15° NNE 17:26:48 51° E 17:31:02 10° S
Cosmos 1833 Rocket 3.5 17:22:11 10° SW 17:27:38 50° WNW 17:33:07 10° NNE
Cosmos 1782 3.1 17:24:47 10° SSW 17:28:45 67° W 17:32:44 10° N
Cosmos 1814 Rocket 4.0 17:24:50 10° S 17:29:59 63° ESE 17:33:44 19° NNE
Cosmos 2266 Rocket 4.5 17:24:44 10° N 17:30:37 37° ENE 17:36:29 10° SE
ATLAS 5 CENTAUR R/B 2.9 17:26:23 10° NW 17:32:32 29° NNE 17:33:07 28° NE
Cosmos 921 Rocket 3.9 17:29:40 10° SSE 17:32:43 27° ESE 17:32:43 27° ESE
CZ-2C R/B 3.7 17:32:56 10° S 17:34:16 11° SSE 17:35:26 10° SE
Cosmos 1633 Rocket 3.0 17:31:29 10° N 17:35:50 62° E 17:40:10 10° SSE
Cosmos 1818 4.0 17:31:45 10° NNW 17:36:57 41° NE 17:38:50 31° E
GEOS 3 Rocket 4.2 17:37:58 31° ENE 17:39:17 36° NE 17:43:59 10° NNW
CZ-2D R/B 3.9 17:35:38 10° S 17:39:24 57° W 17:43:11 10° NNW
Meteor 2-6 Rocket 4.2 17:34:30 10° S 17:40:09 58° E 17:45:14 12° NNE
SJ-11-01 4.2 17:37:22 10° SSE 17:42:04 69° ENE 17:46:48 10° N
Cosmos 1634 Rocket 4.4 17:35:58 10° SSW 17:42:14 66° W 17:48:34 10° N
USA 308 4.3 17:39:24 10° NW 17:42:53 24° N 17:43:13 23° NNE
COSMOS 2455 3.1 17:37:36 10° SW 17:43:36 71° WNW 17:48:14 18° NNE
CZ-2C R/B 2.4 17:41:02 10° NNE 17:46:15 81° ESE 17:51:25 10° S
CZ-4B R/B 3.1 17:40:51 10° SSE 17:46:18 89° WSW 17:51:40 10° NNW
Cosmos 1500 4.3 17:43:44 10° NNW 17:47:17 43° W 17:50:50 10° SSW
Cosmos 1151 Rocket 3.0 17:43:25 10° S 17:47:44 82° W 17:51:27 14° N
Okean O Rocket 1.5 17:45:56 10° SSE 17:50:23 82° ENE 17:54:53 10° NNW
SKYMED 3 4.5 17:47:47 18° NNE 17:50:58 87° W 17:55:17 10° SSW
Lacrosse 5 rocket 2.2 17:47:36 10° NW 17:50:36 32° N 17:50:36 32° N
Meteor 2-15 4.3 17:51:30 10° S 17:57:33 67° E 18:03:28 11° NNE
Cosmos 2208 Rocket 3.9 17:53:46 10° SSW 17:59:09 79° ESE 18:01:39 33° NNE
CZ-4 R/B 4.4 17:55:38 10° SSE 17:59:44 83° WSW 18:03:54 10° NNW
Cosmos 1666 Rocket 4.2 17:57:16 10° NNW 18:01:38 57° W 18:05:56 10° S
Meteor 1-10 Rocket 4.2 17:56:18 10° S 18:02:01 65° E 18:04:52 30° NNE
H-2A R/B 3.0 17:57:34 10° S 18:02:34 47° W 18:07:27 10° NNW
Meteor 1-11 Rocket 3.8 17:58:22 10° N 18:03:52 53° ENE 18:09:26 10° SSE
USA 267 4.1 18:01:03 24° NNE 18:04:27 41° NNW 18:10:29 10° W
Cosmos 1470 Rocket 3.4 18:00:27 10° N 18:04:55 74° E 18:09:23 10° SSE
Cosmos 2150 Rocket 4.1 18:00:06 10° NNW 18:04:48 52° NE 18:04:48 52° NE
Cosmos 1328 Rocket 3.7 18:00:50 10° SSW 18:05:16 76° W 18:07:30 29° N
Cosmos 1655 Rocket 3.9 18:00:42 10° N 18:07:07 72° E 18:13:26 10° SSE
Landsat 5 3.4 18:08:42 62° N 18:09:19 78° WNW 18:13:17 10° SSW
Cosmos 2360 Rocket 3.8 18:05:01 10° N 18:07:10 19° NNE 18:07:10 19° NNE
USA 305 4.4 18:06:03 10° NW 18:08:46 26° N 18:08:46 26° N
SKYMED 2 4.4 18:12:01 19° N 18:14:52 49° WNW 18:19:02 10° SW
Feng Yun 1-1 Rocket 4.3 18:09:46 10° SSE 18:15:42 86° ENE 18:21:37 10° NNW
Cosmos 1666 4.2 18:13:18 10° NNW 18:16:44 35° W 18:20:08 10° SSW
ATLAS CENTAUR R/B 3.6 18:12:44 10° W 18:19:32 31° NW 18:20:43 27° N
Cosmos 1125 Rocket 3.8 18:18:04 10° NNW 18:22:14 54° N 18:22:14 54° N
Cosmos 2322 Rocket 3.1 18:24:16 10° NNW 18:27:49 36° N 18:27:49 36° N
SL-08 RB Rocket 4.4 18:29:11 10° S 18:33:43 53° W 18:38:14 10° NNW
Cosmos 1980 Rocket 3.9 18:30:33 10° NW 18:35:27 31° WSW 18:40:18 10° SSW
ATLAS 2AS CENTAUR R/B 4.4 18:32:31 10° NNW 18:37:27 19° NNE 18:37:27 19° NNE
ISS -1.0 18:36:42 10° WNW 18:37:58 19° W 18:37:58 19° W
CZ-4C R/B 3.6 18:39:35 10° NW 18:46:51 56° WSW 18:55:08 10° SSE
SL-16 R/B 2.6 18:41:51 10° NNW 18:46:11 54° NNW 18:46:11 54° NNW
Cosmos 2082 Rocket 4.0 18:45:06 10° WSW 18:49:52 27° NW 18:52:35 19° N
Cosmos 44 Rocket 4.5 18:49:47 10° NW 18:53:10 39° WNW 18:53:10 39° WNW
